TimeCDT,TemperatureF,Dew PointF,Humidity,Sea Level PressureIn,VisibilityMPH,Wind Direction,Wind SpeedMPH,Gust SpeedMPH,PrecipitationIn,Events,Conditions,WindDirDegrees,DateUTC
12:53 AM,79.0,69.1,72,29.93,10.0,South,3.5,-,N/A,,Clear,190,2013-09-04 05:53:00
1:53 AM,79.0,69.1,72,29.93,10.0,South,4.6,-,N/A,,Clear,170,2013-09-04 06:53:00
2:53 AM,78.1,70.0,76,29.94,10.0,SSE,3.5,-,N/A,,Clear,160,2013-09-04 07:53:00
3:53 AM,78.1,70.0,76,29.94,10.0,NE,3.5,-,N/A,,Clear,50,2013-09-04 08:53:00
4:53 AM,75.9,70.0,82,29.95,10.0,ENE,3.5,-,N/A,,Clear,70,2013-09-04 09:53:00
5:53 AM,75.0,70.0,84,29.96,10.0,East,3.5,-,N/A,,Partly Cloudy,90,2013-09-04 10:53:00
6:53 AM,75.9,71.1,85,29.99,10.0,ESE,3.5,-,N/A,,Partly Cloudy,110,2013-09-04 11:53:00
7:53 AM,75.9,71.1,85,30.01,8.0,ESE,3.5,-,N/A,,Clear,120,2013-09-04 12:53:00
8:53 AM,82.0,71.1,69,30.02,10.0,SSE,5.8,-,N/A,,Scattered Clouds,160,2013-09-04 13:53:00
9:53 AM,86.0,70.0,59,30.04,10.0,Calm,Calm,-,N/A,,Clear,0,2013-09-04 14:53:00
10:53 AM,90.0,69.1,50,30.04,10.0,East,5.8,-,N/A,,Clear,100,2013-09-04 15:53:00
11:53 AM,93.9,68.0,43,30.03,10.0,East,6.9,-,N/A,,Clear,100,2013-09-04 16:53:00
12:53 PM,96.1,66.0,37,30.02,10.0,SE,8.1,-,N/A,,Clear,140,2013-09-04 17:53:00
1:53 PM,97.0,64.0,34,30.00,10.0,East,11.5,-,N/A,,Partly Cloudy,80,2013-09-04 18:53:00
2:53 PM,102.0,62.1,27,29.97,10.0,Variable,4.6,-,N/A,,Clear,0,2013-09-04 19:53:00
3:53 PM,102.0,57.9,23,29.95,10.0,Variable,6.9,-,N/A,,Partly Cloudy,0,2013-09-04 20:53:00
4:53 PM,100.9,62.1,28,29.94,10.0,ESE,5.8,-,N/A,,Scattered Clouds,110,2013-09-04 21:53:00
5:53 PM,97.0,64.9,35,29.94,10.0,East,13.8,-,N/A,,Clear,100,2013-09-04 22:53:00
6:53 PM,97.0,64.0,34,29.94,10.0,ESE,11.5,-,N/A,,Clear,110,2013-09-04 23:53:00
7:53 PM,91.0,68.0,47,29.97,10.0,ESE,11.5,-,N/A,,Clear,110,2013-09-05 00:53:00
8:53 PM,89.1,68.0,50,30.00,10.0,SE,9.2,-,N/A,,Clear,130,2013-09-05 01:53:00
9:53 PM,87.1,66.9,51,30.01,10.0,SE,5.8,-,N/A,,Clear,140,2013-09-05 02:53:00
10:53 PM,84.0,68.0,58,30.04,10.0,ESE,4.6,-,N/A,,Clear,120,2013-09-05 03:53:00
11:53 PM,84.9,69.1,59,30.04,10.0,SSE,6.9,-,N/A,,Mostly Cloudy,150,2013-09-05 04:53:00